When you browse on this site, cookies collect data to enhance your experience and personalize the content and advertising you see.
Visit our Privacy Policy to learn more. By continuing to use the site, you agree to this use of cookies and data.
  • In Hungary
  • List of Countries
  • For 7 days
  • Water Temperature
  • Weather Map
  • News
  • Weather Widgets
  • user-avatar
    Login

    Hourly Weather Trikala

    Today, 25 August, Sunday

    Time Temperature Precipitation Wind Pressure Humidity
    00:00 +26°C° 0 mm 1 mps 752 mmHg 48%
    01:00 +26°C° 0 mm 1 mps 752 mmHg 49%
    02:00 +25°C° 0 mm 1 mps 752 mmHg 51%
    03:00 +25°C° 0 mm 1 mps 752 mmHg 52%
    04:00 +25°C° 0 mm 1 mps 752 mmHg 54%
    05:00 +27°C° 0 mm 1 mps 752 mmHg 50%
    06:00 +28°C° 0 mm 1 mps 752 mmHg 46%
    07:00 +30°C° 0 mm 1 mps 752 mmHg 41%
    08:00 +32°C° 0 mm 2 mps 752 mmHg 37%
    09:00 +34°C° 0 mm 2 mps 752 mmHg 33%
    10:00 +36°C° 0 mm 3 mps 752 mmHg 29%
    11:00 +37°C° 0 mm 4 mps 752 mmHg 27%
    12:00 +38°C° 0 mm 4 mps 751 mmHg 24%
    13:00 +40°C° 0 mm 5 mps 751 mmHg 21%
    14:00 +39°C° 0 mm 5 mps 751 mmHg 21%
    15:00 +39°C° 0 mm 5 mps 751 mmHg 21%
    16:00 +39°C° 0 mm 5 mps 750 mmHg 21%
    17:00 +35°C° 0 mm 4 mps 750 mmHg 26%
    18:00 +31°C° 0 mm 2 mps 751 mmHg 31%
    19:00 +28°C° 0 mm 1 mps 751 mmHg 36%
    20:00 +28°C° 0 mm 1 mps 751 mmHg 37%
    21:00 +27°C° 0 mm 1 mps 751 mmHg 39%
    22:00 +26°C° 0 mm 1 mps 752 mmHg 41%
    23:00 +26°C° 0 mm 1 mps 751 mmHg 41%

    Tomorrow, 26 August, Monday

    Time Temperature Precipitation Wind Pressure Humidity
    00:00 +26°C° 0 mm 1 mps 751 mmHg 41%
    01:00 +26°C° 0 mm 1 mps 751 mmHg 41%
    02:00 +25°C° 0 mm 1 mps 751 mmHg 42%
    03:00 +25°C° 0 mm 1 mps 751 mmHg 43%
    04:00 +25°C° 0 mm 1 mps 751 mmHg 43%
    05:00 +27°C° 0 mm 1 mps 751 mmHg 40%
    06:00 +29°C° 0 mm 1 mps 751 mmHg 36%
    07:00 +31°C° 0 mm 1 mps 752 mmHg 33%
    08:00 +34°C° 0 mm 2 mps 752 mmHg 30%
    09:00 +35°C° 0 mm 2 mps 752 mmHg 27%
    10:00 +37°C° 0 mm 3 mps 752 mmHg 24%
    11:00 +38°C° 0 mm 4 mps 752 mmHg 22%
    12:00 +40°C° 0 mm 5 mps 751 mmHg 20%
    13:00 +41°C° 0 mm 7 mps 751 mmHg 18%
    14:00 +40°C° 0 mm 7 mps 751 mmHg 20%
    15:00 +39°C° 0 mm 7 mps 750 mmHg 21%
    16:00 +38°C° 0 mm 7 mps 750 mmHg 22%
    17:00 +35°C° 0 mm 5 mps 750 mmHg 28%
    18:00 +31°C° 0 mm 3 mps 751 mmHg 34%
    19:00 +28°C° 0 mm 1 mps 751 mmHg 39%
    20:00 +28°C° 0 mm 1 mps 751 mmHg 40%
    21:00 +27°C° 0 mm 1 mps 752 mmHg 42%
    22:00 +27°C° 0 mm 1 mps 752 mmHg 43%
    23:00 +26°C° 0 mm 1 mps 752 mmHg 44%

    Day after tomorrow, 27 August, Tuesday

    Time Temperature Precipitation Wind Pressure Humidity
    00:00 +26°C° 0 mm 1 mps 752 mmHg 46%
    01:00 +25°C° 0 mm 1 mps 752 mmHg 47%
    02:00 +25°C° 0 mm 1 mps 752 mmHg 50%
    03:00 +25°C° 0 mm 1 mps 752 mmHg 52%
    04:00 +24°C° 0 mm 1 mps 752 mmHg 54%
    05:00 +26°C° 0 mm 1 mps 752 mmHg 50%
    06:00 +28°C° 0 mm 1 mps 752 mmHg 45%
    07:00 +30°C° 0 mm 1 mps 752 mmHg 41%
    08:00 +31°C° 0 mm 1 mps 752 mmHg 36%
    09:00 +34°C° 0 mm 2 mps 752 mmHg 32%
    10:00 +36°C° 0 mm 2 mps 752 mmHg 28%
    11:00 +37°C° 0 mm 2 mps 752 mmHg 26%
    12:00 +37°C° 0 mm 3 mps 752 mmHg 25%
    13:00 +38°C° 0 mm 3 mps 752 mmHg 23%
    14:00 +38°C° 0 mm 4 mps 751 mmHg 24%
    15:00 +37°C° 0 mm 4 mps 751 mmHg 25%
    16:00 +36°C° 0 mm 5 mps 751 mmHg 26%
    17:00 +34°C° 0 mm 3 mps 751 mmHg 32%
    18:00 +31°C° 0 mm 2 mps 752 mmHg 37%
    19:00 +28°C° 0 mm 1 mps 752 mmHg 43%
    20:00 +28°C° 0 mm 1 mps 752 mmHg 44%
    21:00 +28°C° 0 mm 1 mps 752 mmHg 45%
    22:00 +28°C° 0 mm 1 mps 752 mmHg 47%
    23:00 +27°C° 0 mm 1 mps 752 mmHg 48%

    28 August, Wednesday

    Time Temperature Precipitation Wind Pressure Humidity
    00:00 +27°C° 0 mm 1 mps 752 mmHg 50%
    01:00 +26°C° 0 mm 1 mps 752 mmHg 52%
    02:00 +26°C° 0 mm 1 mps 752 mmHg 54%
    03:00 +25°C° 0 mm 1 mps 752 mmHg 57%
    04:00 +24°C° 0 mm 1 mps 752 mmHg 60%
    05:00 +26°C° 0 mm 1 mps 752 mmHg 56%
    06:00 +27°C° 0 mm 1 mps 752 mmHg 51%
    07:00 +29°C° 0 mm 1 mps 752 mmHg 47%
    08:00 +30°C° 0 mm 1 mps 752 mmHg 42%
    09:00 +32°C° 0 mm 2 mps 752 mmHg 38%
    10:00 +35°C° 0 mm 2 mps 752 mmHg 33%
    11:00 +35°C° 0 mm 2 mps 752 mmHg 31%
    12:00 +36°C° 0 mm 3 mps 751 mmHg 30%
    13:00 +36°C° 0 mm 3 mps 751 mmHg 28%
    14:00 +36°C° 0 mm 3 mps 751 mmHg 28%
    15:00 +36°C° 0 mm 4 mps 751 mmHg 27%
    16:00 +35°C° 0 mm 4 mps 750 mmHg 27%
    17:00 +33°C° 0 mm 3 mps 750 mmHg 30%
    18:00 +30°C° 0 mm 2 mps 751 mmHg 33%
    19:00 +27°C° 0 mm 1 mps 751 mmHg 36%
    20:00 +27°C° 0 mm 1 mps 751 mmHg 37%
    21:00 +26°C° 0 mm 1 mps 751 mmHg 38%
    22:00 +25°C° 0 mm 1 mps 751 mmHg 39%
    23:00 +25°C° 0 mm 1 mps 751 mmHg 40%

    29 August, Thursday

    Time Temperature Precipitation Wind Pressure Humidity
    00:00 +22°C° 0 mm 0 mps 751 mmHg 40%
    01:00 +22°C° 0 mm 0 mps 751 mmHg 41%
    02:00 +21°C° 0 mm 0 mps 751 mmHg 41%
    03:00 +21°C° 0 mm 0 mps 751 mmHg 42%
    04:00 +21°C° 0 mm 0 mps 751 mmHg 43%
    05:00 +22°C° 0 mm 0 mps 751 mmHg 39%
    06:00 +24°C° 0 mm 0 mps 751 mmHg 36%
    07:00 +26°C° 0 mm 0 mps 751 mmHg 32%
    08:00 +30°C° 0 mm 1 mps 751 mmHg 29%
    09:00 +32°C° 0 mm 2 mps 751 mmHg 27%
    10:00 +35°C° 0 mm 2 mps 751 mmHg 24%
    11:00 +35°C° 0 mm 2 mps 750 mmHg 24%
    12:00 +36°C° 0 mm 2 mps 750 mmHg 23%
    13:00 +37°C° 0 mm 2 mps 750 mmHg 22%
    14:00 +36°C° 0.1 mm 3 mps 750 mmHg 27%
    15:00 +34°C° 0.1 mm 3 mps 750 mmHg 31%
    16:00 +33°C° 0.1 mm 4 mps 750 mmHg 35%
    17:00 +30°C° 0 mm 3 mps 750 mmHg 39%
    18:00 +28°C° 0 mm 2 mps 750 mmHg 44%
    19:00 +27°C° 0 mm 1 mps 750 mmHg 48%
    20:00 +26°C° 0 mm 1 mps 750 mmHg 51%
    21:00 +25°C° 0 mm 1 mps 751 mmHg 54%
    22:00 +24°C° 0 mm 1 mps 751 mmHg 56%
    23:00 +24°C° 0 mm 1 mps 751 mmHg 57%

    30 August, Friday

    Time Temperature Precipitation Wind Pressure Humidity
    00:00 +21°C° 0 mm 0 mps 751 mmHg 58%
    01:00 +21°C° 0 mm 0 mps 751 mmHg 59%
    02:00 +20°C° 0 mm 0 mps 751 mmHg 60%
    03:00 +20°C° 0 mm 0 mps 751 mmHg 62%
    04:00 +19°C° 0 mm 0 mps 751 mmHg 63%
    05:00 +21°C° 0 mm 0 mps 751 mmHg 57%
    06:00 +25°C° 0 mm 1 mps 751 mmHg 51%
    07:00 +26°C° 0 mm 1 mps 751 mmHg 45%
    08:00 +28°C° 0 mm 1 mps 751 mmHg 40%
    09:00 +30°C° 0 mm 2 mps 751 mmHg 34%
    10:00 +32°C° 0 mm 2 mps 752 mmHg 29%
    11:00 +34°C° 0 mm 2 mps 751 mmHg 27%
    12:00 +35°C° 0 mm 2 mps 751 mmHg 25%
    13:00 +36°C° 0 mm 2 mps 751 mmHg 23%
    14:00 +36°C° 0 mm 3 mps 751 mmHg 24%
    15:00 +35°C° 0 mm 3 mps 750 mmHg 25%
    16:00 +35°C° 0 mm 3 mps 750 mmHg 26%
    17:00 +31°C° 0 mm 3 mps 750 mmHg 34%
    18:00 +29°C° 0 mm 2 mps 751 mmHg 43%
    19:00 +26°C° 0 mm 1 mps 751 mmHg 52%
    20:00 +25°C° 0 mm 1 mps 751 mmHg 54%
    21:00 +25°C° 0 mm 1 mps 751 mmHg 56%
    22:00 +24°C° 0 mm 1 mps 752 mmHg 58%
    23:00 +23°C° 0 mm 1 mps 752 mmHg 60%
    Show more